Simultaneous Nadir Overpasses (SNOs) Predictions

Prediction of SNOs between NOAA-20 and AQUA Satellite Orbit:

Table of predicted SNOs for the next 14.0 days since TLE Epoch: 12/9/2023
Index Date (NOAA-20) Time (NOAA-20) Lat,Lon (NOAA-20) SZA (NOAA-20 ) Date (AQUA) Time (AQUA) Lat,Lon (AQUA) SZA (AQUA ) Distance(km) Time Diff (sec)
1 12/09/2023 23:08:08 -81.00, -71.17 68.65 12/09/2023 23:08:27 -81.00, -71.13 68.67 0.67 19
2 12/09/2023 23:58:50 81.03, 97.07 111.22 12/09/2023 23:57:48 81.04, 97.16 111.25 1.58 62
3 12/12/2023 12:02:29 -80.49, 86.47 67.05 12/12/2023 12:03:43 -80.32, 87.03 67.20 21.91 74
4 12/12/2023 12:52:46 81.03, -96.62 111.51 12/12/2023 12:52:40 81.03, -96.70 111.53 1.40 6
5 12/15/2023 01:46:43 81.00, 69.29 111.81 12/15/2023 01:47:32 81.00, 69.19 111.79 1.82 49
6 12/15/2023 02:37:27 -81.02,-122.85 68.28 12/15/2023 02:36:55 -81.02,-122.75 68.27 1.84 32
7 12/17/2023 15:31:21 -81.03, 43.77 68.13 12/17/2023 15:31:44 -81.03, 43.61 68.12 2.73 23
8 12/17/2023 16:22:04 81.05,-148.40 111.80 12/17/2023 16:21:06 81.04,-148.51 111.85 1.99 58
9 12/20/2023 05:16:01 81.02, 17.43 112.01 12/20/2023 05:15:56 81.02, 17.58 111.99 2.63 5
10 12/22/2023 18:09:58 80.99,-176.77 112.18 12/22/2023 18:10:46 80.99,-176.59 112.12 3.15 48



Historial Predications of SNOs between NOAA-20 and AQUA
